Lid_Strength_Index
2 3 3 3 3 2 2 2 2 2 2 2 2 1 1 1 2 3 5 4 2 -2 -1 3 2 3 3 4 4 4 7 8 7 7 6 5 6 5 5 6 5 5 5 4 3
3 3 3 3 3 3 3 2 2 2 2 2 2 1 1 1 2 5 3 -1 -2 -3 3 5 5 4 4 5 4 6 7 7 6 6 7 7 7 7 7 7 6 6 4 4 4
3 3 3 3 3 3 3 3 2 2 2 2 2 2 1 1 4 5 -1 -1 -2 -1 4 4 4 4 6 5 6 6 7 6 7 7 7 7 7 6 7 8 6 7 6 5 4
3 3 3 3 3 3 3 3 3 2 2 2 2 2 1 2 8 4 -1 -1 -3 1 4 5 5 6 7 7 6 8 7 7 7 7 7 8 7 7 7 7 6 6 5 5 5
2 3 3 3 3 3 3 3 3 3 2 2 2 1 2 5 6 3 -2 -0 2 4 5 6 6 6 7 7 7 7 7 7 7 7 7 7 7 7 7 6 5 5 5 5 5
3 3 3 3 3 3 3 3 3 3 3 2 2 1 2 7 4 3 3 3 4 4 5 5 6 6 7 7 7 7 7 7 7 7 7 8 7 7 6 6 6 6 5 5 5
3 3 3 3 3 3 3 3 3 3 2 2 1 1 3 6 3 3 3 4 4 4 5 5 5 6 6 7 6 7 9 7 7 7 8 7 8 8 6 5 5 5 4 4 4
3 3 3 3 3 3 3 3 3 2 2 2 1 1 6 3 2 3 3 4 3 3 4 4 4 6 6 6 7 8 8 10 7 7 8 8 10 6 5 4 4 4 4 4 3
3 3 3 3 3 3 3 3 2 1 1 1 2 3 6 4 5 4 3 5 4 4 4 5 5 6 7 8 9 8 10 10 9 7 7 8 9 6 4 4 5 5 5 3 3
3 3 3 3 3 3 4 3 1 2 1 2 3 6 6 7 5 5 4 4 5 5 5 6 6 8 7 8 11 10 10 9 10 8 7 8 8 5 4 4 5 5 4 3 3
2 3 3 3 3 4 4 3 4 4 3 5 6 6 7 5 4 5 4 5 5 6 8 7 9 9 8 8 9 9 10 10 8 7 8 8 7 6 4 5 6 5 4 4 4
3 3 3 3 4 4 3 4 4 4 6 4 5 5 5 5 7 6 4 6 6 8 8 8 9 8 8 9 9 9 10 9 8 8 7 7 7 6 5 6 5 5 5 4 3
3 3 3 3 4 3 4 3 2 2 6 5 5 6 6 6 7 7 5 6 8 9 8 9 8 8 9 9 10 9 10 9 10 8 7 7 8 7 6 5 4 4 4 4 4
3 3 3 4 4 3 4 3 1 1 8 7 7 6 5 6 8 5 5 7 8 9 9 9 7 9 10 10 9 11 8 9 9 9 11 7 12 8 6 6 5 5 4 4 4
3 3 3 5 2 4 3 2 1 1 13 6 6 4 5 7 6 6 5 7 9 8 9 9 9 9 10 9 9 10 8 9 9 9 9 9 10 9 6 7 6 5 5 4 4
2 2 2 3 2 3 2 1 1 8 13 8 6 7 7 7 7 6 7 6 6 8 8 8 7 9 9 8 8 8 8 8 8 9 13 10 10 10 8 7 6 5 5 4 4
2 2 2 1 2 1 2 3 9 12 7 8 9 8 7 8 8 8 8 8 9 10 10 8 9 8 8 9 7 8 9 15 15 14 15 9 10 9 7 6 6 6 5 4 3
3 3 1 0 -1 1 1 7 12 9 8 8 8 8 9 8 8 8 9 9 7 9 10 11 12 9 7 8 9 9 9 13 20 16 13 9 12 9 6 5 5 5 4 4 3
4 0 -0 -1 -1 -1 3 9 10 8 7 8 9 9 9 8 8 8 9 9 8 8 11 11 11 8 8 8 8 9 10 8 13 12 14 11 9 7 6 7 6 5 5 4 4
2 1 1 -1 -2 1 6 9 7 6 6 8 10 8 9 8 9 9 9 8 8 8 8 9 12 9 8 8 7 8 7 13 13 18 17 12 11 10 9 8 6 6 5 5 4
2 4 1 -1 -1 4 8 7 6 4 5 8 9 9 8 8 8 8 9 8 7 8 8 8 9 9 8 9 9 9 10 10 11 12 16 17 12 8 7 7 7 6 5 5 5
4 7 0 -1 5 5 7 6 6 5 4 6 7 8 7 7 8 8 9 8 6 7 10 8 9 12 10 7 7 8 9 10 15 15 13 14 14 6 6 6 5 6 5 4 4
6 6 2 1 8 7 5 6 5 5 5 7 7 7 6 7 11 8 7 6 6 7 8 7 10 14 11 9 8 9 8 8 9 11 15 17 13 6 6 6 5 5 5 5 5
6 9 6 3 3 6 7 7 7 5 5 5 6 6 6 7 6 8 8 7 6 7 6 7 9 12 14 10 9 11 9 9 10 15 14 12 11 8 7 6 6 5 5 5 5
6 7 5 8 6 6 6 7 8 8 5 5 7 6 7 9 8 8 7 7 7 5 7 8 11 9 9 9 9 9 10 9 10 10 14 11 10 8 7 6 5 5 5 5 6
7 7 5 6 5 6 7 7 9 8 7 8 9 6 6 8 8 9 7 7 8 7 7 7 11 9 10 9 9 10 9 9 9 9 9 9 9 6 5 5 5 5 5 6 6
4 3 5 7 6 7 7 7 8 7 7 6 7 9 7 6 5 4 4 4 5 6 7 8 9 11 14 9 10 12 9 9 8 8 8 11 8 6 6 6 6 5 5 6 7